Date String (YYYY-MM-DD hh:mm:ss) UTC,Instrument flags,Ambient pressure (hPa),Sample flow (lpm),Bypass flow (lpm),Sample temperature (°C),Ambient temperature (°C),ASC tube jacket temperature (°C),LED temperature (°C),Box temperature (°C),Sample RH (%),Span deviation,Mass concentration (μg/m³),Mass concentration (μg/m³),Mass concentration (μg/m³)
DateTimeUTC,F1_M11,P_M11,Q1_M11,Q2_M11,T1_M11,T2_M11,T3_M11,T4_M11,T5_M11,U1_M11,ZSPAN_M11,X0_M11,X2_M11,X1_M11
2022-06-17 14:00:00,,0828.1,5.00,0.00,32.5,28.0,00.0,40.2,32.5,34.9,0000.0,0019.66,0008.08,0005.00
2022-06-17 14:01:00,,0828.2,5.00,0.00,32.6,28.2,00.0,40.2,32.5,34.7,0000.0,0020.18,0008.09,0004.99
2022-06-17 14:02:00,,0828.1,5.00,0.00,32.6,28.3,00.0,40.2,32.5,34.7,0000.0,0020.36,0008.05,0004.97
2022-06-17 14:03:00,,0828.1,5.00,0.00,32.6,28.5,00.0,40.3,32.5,34.7,0000.0,0019.69,0007.99,0004.95
2022-06-17 14:04:00,,0828.1,5.00,0.00,32.6,28.6,00.0,40.3,32.5,34.9,0000.0,0020.09,0008.01,0004.96
2022-06-17 14:05:00,,0828.0,4.99,0.00,32.5,28.7,00.0,40.4,32.5,35.1,0000.0,0019.92,0007.93,0004.96
2022-06-17 14:06:00,,0828.1,5.00,0.00,32.6,28.8,00.0,40.4,32.6,35.0,0000.0,0019.26,0008.01,0004.97
2022-06-17 14:07:00,,0828.0,5.01,0.00,32.8,28.9,00.0,40.4,32.8,34.7,0000.0,0019.52,0008.03,0004.98
2022-06-17 14:08:00,,0828.1,5.00,0.00,32.8,29.0,00.0,40.5,32.8,34.6,0000.0,0019.03,0008.00,0005.01
2022-06-17 14:09:00,,0828.1,5.00,0.00,32.8,29.0,00.0,40.5,32.7,34.6,0000.0,0019.02,0008.06,0005.03
2022-06-17 14:10:00,,0828.1,4.99,0.00,32.8,29.1,00.0,40.5,32.8,34.7,0000.0,0019.40,0008.06,0005.04
2022-06-17 14:11:00,,0828.1,4.99,0.00,32.8,29.0,00.0,40.5,32.7,34.7,0000.0,0019.80,0008.06,0005.05
2022-06-17 14:12:00,,0828.1,5.01,0.00,32.7,28.4,00.0,40.5,32.6,34.8,0000.0,0020.27,0008.10,0005.08
2022-06-17 14:13:00,,0828.1,4.99,0.00,32.6,27.9,00.0,40.4,32.4,34.9,0000.0,0020.10,0008.11,0005.11
2022-06-17 14:14:00,,0828.0,5.01,0.00,32.5,27.7,00.0,40.4,32.4,35.2,0000.0,0019.87,0008.10,0005.15
2022-06-17 14:15:00,,0828.0,5.01,0.00,32.6,27.8,00.0,40.4,32.5,35.2,0000.0,0019.33,0008.05,0005.16
2022-06-17 14:16:00,,0828.0,4.99,0.00,32.8,27.9,00.0,40.4,32.6,34.8,0000.0,0019.20,0008.06,0005.16
2022-06-17 14:17:00,,0828.1,5.01,0.00,32.9,28.0,00.0,40.4,32.6,34.6,0000.0,0019.75,0008.04,0005.17
2022-06-17 14:18:00,,0828.1,4.99,0.00,32.9,28.2,00.0,40.4,32.6,34.5,0000.0,0019.37,0008.08,0005.18
2022-06-17 14:19:00,,0828.1,5.01,0.00,32.8,28.3,00.0,40.5,32.6,34.6,0000.0,0019.56,0008.08,0005.17
2022-06-17 14:20:00,,0828.1,4.99,0.00,32.8,28.4,00.0,40.5,32.6,34.8,0000.0,0019.55,0008.04,0005.17
2022-06-17 14:21:00,,0828.1,5.01,0.00,32.7,28.6,00.0,40.5,32.6,34.9,0000.0,0019.14,0007.97,0005.18
2022-06-17 14:22:00,,0828.0,4.99,0.00,32.7,28.7,00.0,40.6,32.6,35.2,0002.3,0018.65,0007.99,0005.19
2022-06-17 14:23:00,,0828.0,4.99,0.00,32.8,28.8,00.0,40.6,32.7,35.2,0001.0,0017.65,0007.98,0005.18
2022-06-17 14:24:00,,0828.0,5.01,0.00,33.0,28.9,00.0,40.6,32.9,34.7,0000.0,0017.69,0007.92,0005.17
2022-06-17 14:25:00,,0828.1,4.99,0.00,33.2,29.0,00.0,40.6,33.0,34.3,0001.2,0018.12,0007.97,0005.17
2022-06-17 14:26:00,,0828.1,5.00,0.00,33.2,29.1,00.0,40.7,32.9,34.1,0003.1,0018.75,0008.07,0005.18
2022-06-17 14:27:00,,0828.1,5.00,0.00,33.2,29.0,00.0,40.7,32.9,34.0,0002.8,0019.04,0008.11,0005.19
2022-06-17 14:28:00,,0828.1,5.01,0.00,33.2,28.4,00.0,40.7,32.7,34.1,0001.6,0018.95,0008.17,0005.21
2022-06-17 14:29:00,,0828.1,4.99,0.00,33.1,27.9,00.0,40.6,32.5,34.4,0001.4,0018.67,0008.15,0005.23
2022-06-17 14:30:00,,0828.0,5.00,0.00,32.9,27.7,00.0,40.7,32.5,34.7,0002.0,0018.71,0008.19,0005.24
2022-06-17 14:31:00,,0828.0,5.00,0.00,32.8,27.8,00.0,40.7,32.4,35.1,0001.1,0019.14,0008.27,0005.27
2022-06-17 14:32:00,,0828.0,5.01,0.00,32.8,27.9,00.0,40.7,32.5,35.1,0000.7,0020.03,0008.37,0005.27
2022-06-17 14:33:00,,0828.0,4.99,0.00,33.0,28.0,00.0,40.6,32.7,34.7,0000.9,0020.22,0008.40,0005.29
2022-06-17 14:34:00,,0828.0,5.01,0.00,33.0,28.2,00.0,40.7,32.7,34.5,0000.9,0020.16,0008.37,0005.30
2022-06-17 14:35:00,,0828.0,5.00,0.00,33.0,28.3,00.0,40.7,32.7,34.5,0001.1,0020.54,0008.36,0005.29
2022-06-17 14:36:00,,0828.0,4.99,0.00,33.0,28.5,00.0,40.7,32.6,34.6,0001.5,0021.45,0008.38,0005.27
2022-06-17 14:37:00,,0828.0,5.00,0.00,32.9,28.6,00.0,40.7,32.6,34.7,0000.6,0021.22,0008.35,0005.24
2022-06-17 14:38:00,,0827.9,4.99,0.00,32.8,28.7,00.0,40.7,32.6,34.9,0000.3,0020.91,0008.29,0005.23
2022-06-17 14:39:00,,0827.9,5.01,0.00,32.8,28.8,00.0,40.7,32.7,35.0,0000.6,0020.42,0008.23,0005.20
2022-06-17 14:40:00,,0827.9,5.00,0.00,32.9,28.9,00.0,40.8,32.9,35.8,0000.6,0020.77,0008.20,0005.18
2022-06-17 14:41:00,,0827.9,5.01,0.00,33.2,28.8,00.0,40.7,33.0,38.1,0000.6,0021.13,0008.17,0005.14
2022-06-17 14:42:00,,0827.9,5.00,0.00,33.5,28.2,00.0,40.7,33.0,36.2,0000.0,0020.70,0008.08,0005.07
2022-06-17 14:43:00,,0827.9,4.99,0.00,33.8,27.8,00.0,40.7,33.0,34.9,0000.0,0019.79,0007.93,0005.01
2022-06-17 14:44:00,,0827.8,4.99,0.00,33.9,27.7,00.0,40.7,33.0,33.7,0000.0,0019.17,0007.85,0004.94
2022-06-17 14:45:00,,0827.8,5.00,0.00,33.9,27.7,00.0,40.8,32.9,33.3,0000.0,0019.19,0007.81,0004.88
2022-06-17 14:46:00,,0828.1,4.99,0.00,33.9,27.9,00.0,40.8,32.8,33.5,0000.0,0018.90,0007.74,0004.83
2022-06-17 14:47:00,,0827.9,5.00,0.00,33.8,28.0,00.0,40.9,32.8,33.7,0000.0,0018.61,0007.65,0004.78
2022-06-17 14:48:00,,0827.9,5.01,0.00,33.7,28.2,00.0,41.0,32.8,34.0,0000.0,0018.46,0007.49,0004.70
2022-06-17 14:49:00,,0827.9,5.00,0.00,33.7,28.4,00.0,41.0,32.8,34.2,0000.0,0018.55,0007.45,0004.64
2022-06-17 14:50:00,,0827.9,5.00,0.00,33.6,28.5,00.0,41.1,32.8,34.1,0000.0,0019.01,0007.44,0004.55
2022-06-17 14:51:00,,0828.0,5.00,0.00,33.5,28.7,00.0,41.1,32.8,34.1,0000.0,0018.74,0007.39,0004.47
2022-06-17 14:52:00,,0828.0,5.00,0.00,33.4,28.8,00.0,41.1,32.8,34.2,0000.0,0018.19,0007.31,0004.41
2022-06-17 14:53:00,,0827.9,5.00,0.00,33.3,28.9,00.0,41.1,32.8,34.5,0000.0,0018.08,0007.24,0004.38
2022-06-17 14:54:00,,0828.0,5.00,0.00,33.2,29.0,00.0,41.1,32.9,34.6,0000.0,0017.94,0007.22,0004.35
2022-06-17 14:55:00,,0827.8,5.01,0.00,33.1,28.8,00.0,41.1,32.8,34.7,0000.2,0018.13,0007.24,0004.34
2022-06-17 14:56:00,,0827.9,4.99,0.00,33.0,28.2,00.0,41.0,32.6,34.9,0000.2,0018.09,0007.20,0004.32
2022-06-17 14:57:00,,0827.8,5.01,0.00,32.9,27.8,00.0,40.9,32.6,35.1,0000.0,0017.76,0007.16,0004.30
2022-06-17 14:58:00,,0827.8,4.99,0.00,32.9,27.7,00.0,40.9,32.6,35.1,0000.0,0017.68,0007.23,0004.31
2022-06-17 14:59:00,,0827.9,5.00,0.00,33.0,27.8,00.0,40.8,32.7,34.8,0000.0,0017.65,0007.31,0004.33
